Погода в Малиновке

Погода в Малиновке : погода сейчас, прогноз погоды и архив. Всё, что Вы хотите узнать о погоде в Малиновке!

Поиск расширенной информации на нашем сайте:

Другие новости

Новости СМИ2

Главная страница сайта

Новости сайта

02.10.2013

Напоминаем, что на нашем новом сайте вы можете получить высокодетализированные прогнозы погоды по пунктам России, СНГ и мира (включающие важные для авиации метеовеличины, такие как направление и скорость ветра, видимость, явления погоды, количество и форма облачности, нижняя и верхняя граница облачности), а также ознакомиться с разнообразными материалами по авиационной метеорологии и подборкой полезных ссылок на эту тему.

Сайт Метеоцентр.Азия посвящён разработке технологий оптимизации авиаметеорологического обслуживания, включая проектирование и перспективное создание нескольких автоматизированных авиаметеорологических систем:
- система выпуска высокодетальных прогностических карт явлений погоды для нижнего воздушного пространства по России и ближнему зарубежью;
- система верификации прогнозов TAF (выпускаемых синоптиками официальных АМСГ РФ и ближнего зарубежья) и AUTOTAF (выпускаемых сайтом Метеоцентр.Азия) - выявление ошибок, онлайн-сопоставление с фактической погодой METAR, автоматическое внесение коррективов в прогнозы при резком отклонении фактической погоды от прогноза, подсчёт оправдываемости прогнозов по элементам и в целом;
- система обработки, анализа и отображения авиаметеорологической информации для применения провайдерами метеорологической информации.


Погода в Малиновке - сегодня

Время (UTC), дата Ветер
(°,м/с) 
Видим.   Явления Облачность Т
(°С)
Тd
(°С)
f(%) Тe
(°С)
Pmin
(гПа)
dP
(гПа)
Po
(мм)
O2
(г/м3)
Тmin Tmax R s Состояние
почвы
18 16.01.17 тихо ()   50000 м    10/0 верхняя 
[Cs]
-24.8 -27.8 76 -25  1032.9  -0.1  762  340           
21 16.01.17 тихо ()   н/о    н/о 
-25.4 -28.5 75 -25  1032.5  -0.4  762  340           
00 17.01.17 340 (С) 7000 м  дымка  10/0 верхняя 
[Cs]
-25.8 -28.9 75 -26  1032.9  0.4  762  341  -26.4      25  равномерный
сухой снег
100% 
03 17.01.17 240 (ЮЗ) н/о    н/о 
-17.5 -21.9 68 -18  1031.9  -0.5  762  330           
06 17.01.17 240 (ЮЗ) 20000 м  {туман}  3/0 верхняя 
[Ci fib]
-14.1 -22.1 51 -16  1030.4  -1.3  761  325           
09 17.01.17 тихо ()   н/о    н/о 
-20.6 -24.1 74 -21  1030.9  0.2  761  333           
15 17.01.17 330 (СЗ) н/о    н/о 
-26.2 -29.2 76 -27  1031.2  761  341           
18 17.01.17 тихо ()   0500 м  туман  10/0 верхняя 
[Ci fib]
-26.8 -30 74 -27  1031.5  0.3  761  342           
21 17.01.17 тихо ()   н/о    н/о 
-29.1 -32.7 71 -29  1031.2  -0.4  761  345           
00 18.01.17 320 (СЗ) 0500 м  переохл. туман  ясно 
-29.3 -32.8 72 -30  1031.2  761  345  -29.6      25  равномерный
сухой снег
100% 
03 18.01.17 260 (З) н/о    н/о 
-22.3 -25.2 77 -23  1030.2  -0.6  761  335           
06 18.01.17 240 (ЮЗ) 50000 м  {туман}  4/0 верхняя 
[Ci fib]
-18.8 -22.2 74 -19  1028.7  -1.2  760  330           
09 18.01.17 тихо ()   н/о    н/о 
-24.1 -27.1 76 -24  1029.6  0.5  760  338           
15 18.01.17 320 (СЗ) н/о    н/о 
-29.8 -33.4 71 -31  1030.2  0.3  760  346           
18 18.01.17 280 (З) н/о    н/о 
-28.5 -31.8 73 -29  1030.1  760  344           
21 18.01.17 тихо ()   н/о    н/о 
-28.8 -32.3 72 -29  1029.7  -0.5  760  344           
00 19.01.17 340 (С) 0500 м  переохл. туман  ясно 
-30.5 -34.2 70 -31  1030.1  0.3  760  347  -30.7      25  равномерный
сухой снег
100% 
03 19.01.17 250 (З) н/о    н/о 
-22.8 -25.9 76 -23  1028.8  -0.8  760  336           
06 19.01.17 210 (ЮЗ) 20000 м  {туман}  1/0 верхняя 
[Ci fib]
-18.5 -24.2 61 -19  1026.8  -1.7  758  329           
09 19.01.17 тихо ()   н/о    н/о 
-25.7 -28.7 76 -26  1027.5  0.2  758  339           
15 19.01.17 340 (С) н/о    н/о 
-28.8 -32.4 71 -29  1027.4  -0.6  758  343           
18 19.01.17 320 (СЗ) 0500 м  переохл. туман  ясно 
-31.6 -35.4 69 -32  1027.1  -0.4  758  347           
21 19.01.17 тихо ()   н/о    н/о 
-29.8 -33.4 71 -30  1026.6  -0.3  758  345           
00 20.01.17 тихо ()   0500 м  переохл. туман  ясно 
-28.8 -32.3 72 -29  1027.3  0.6  758  343  -31.8      25  равномерный
сухой снег
100% 
03 20.01.17 250 (З) н/о    н/о 
-22.9 -25.9 76 -23  1026.8  0.1  758  335           
Время (UTC), дата Ветер
(°,м/с) 
Видим.   Явления Облачность Т
(°С)
Тd
(°С)
f(%) Тe
(°С)
Pmin
(гПа)
dP
(гПа)
Po
(мм)
O2
(г/м3)
Тmin Tmax R s Состояние
почвы

Для получения пояснительной информации подведите курсор к названию столбца.

ПОГОДА в Малиновке - архив

Всё, что Вы хотите узнать о погоде в Малиновке - удобно и подробно!

Выберите нужную дату (начиная с 1 января 2015* года) и нажмите кнопку "Найти".
Будут отображены архивные сводки погоды по пункту Малиновка, начиная с указанной даты.


Отображать данные в формате CSV (для использования в таблицах Excel)


Внимание! Наш архив погоды предназначен исключительно для личного некоммерческого использования в познавательных целях. Если Вам необходимы официальные справки о состоянии погоды (для производственных, юридических, коммерческих и т.п. целей), обращайтесь в органы Росгидромета.

*Примечание: данная дата относится к архиву по метеостанциям СССР (Россия, СНГ, Балтия).
Архив по метеостанциям Зарубежной Европы и Азии (кроме Китая) хранится 10 дней, по другим регионам земного шара (Китай, Африка, Америка, Австралия, Океания) - 1 день.

Малиновка - район местоположения метеостанции


Название, широта, долгота, высота метеостанции:
Малиновка 49.8°ш. 129.9°д. 116 м над ур. моря [Российская Федерация]

Дополнительная информация

В oтличие oт бoльшинства пoгoдных сайтoв мы публикуем пoдрoбную метеoинфoрмацию в детальнoм прoфессиoнальнoм фoрмате.

Характеристики температуры и влажнoсти вoздуха измеряются на высoте 2 м в тени вдали oт зданий и деревьев.
Скoрoсть ветра измеряется на высoте 10 м (на урoвне рoста челoвека скoрoсть ветра ниже в 1.5-2 раза). Если метеoстанция нахoдится в гoрoде или в лесу, тo скoрoсть ветра занижена на 2-4 м/с пo сравнению с oткрытым местoм. Скoрoсть ветра над акватoриями крупных рек и oзёр, а также на вершинах хoлмoв на 2-5 м/с выше, чем в oбычных услoвиях.
Атмoсфернoе давление в разных тoчках местнoсти мoжет значительнo oтличаться oт давления на метеoстанции, в зависимoсти oт услoвий рельефа (при пoдъёме на 10 м давление пoнижается примернo на 1 мм рт.ст.).